Location: North Bay Shore
(40.7362°N, 73.2626°W)
Time: 09:43:48
(UTC+00:00)

Cosmos 2058 Rocket - Pass Details

Date: 29 October 2020
Orbit: 610 x 639 km, 82.5° (Epoch: 23 November)

Event Time Altitude Azimuth Distance (km) Brightness Sun altitude
Rises 23:07:30 0° 201° (SSW) 2,914 6.9 -14.8°
Reaches altitude 10° 23:09:47 10° 208° (SSW) 2,014 6.1 -15.2°
Maximum altitude 23:14:05 46° 281° (W) 864 4.3 -16.0°
Drops below altitude 10° 23:18:26 10° 355° (N) 2,038 5.7 -16.8°
Sets 23:20:47 0° 2° (N) 2,952 6.5 -17.3°
